Station NBLP1 - 8548989 - Newbold, PA Image indicating link to RSS feed of recent meteorological observations for station NBLP1


Conditions at NBLP1 as of
(5:18 pm EDT)
2118 GMT on 05/22/2024:
     

Click on the graph icon in the table below to see a time series plot of the last five days of that observation.

5-day plot - Wind Direction Wind Direction (WDIR): SW ( 220 deg true )
5-day plot - Wind Speed Wind Speed (WSPD):4.1 m/s
5-day plot - Wind Gust Wind Gust (GST):6.7 m/s
5-day plot - Atmospheric Pressure Atmospheric Pressure (PRES):1012.3 mb
5-day plot - Air Temperature Air Temperature (ATMP): 29.2 °C
5-day plot - Water Temperature Water Temperature (WTMP): 22.1 °C
5-day plot - Wind Speed at 10 Meters Wind Speed at 10 meters (WSPD10M): 5 m/s
5-day plot - Wind Speed at 20 Meters Wind Speed at 20 meters (WSPD20M): 5 m/s
5-day plot -  Wind Speed, Wind Gust and Atmospheric Pressure Combined plot of Wind Speed, Gust, and Air Pressure
NOS Water Level Observation Network Water Level
Previous observations
TIME
(EDT)
5-day plot - Wind Direction
WDIR
 
5-day plot - Wind Speed
WSPD
m/s
5-day plot - Wind Gust
GST
m/s
5-day plot - Wave Height
WVHT
m
5-day plot - Dominant Wave Period
DPD
sec
5-day plot - Average Wave Period
APD
sec
5-day plot - Mean Wave Direction
MWD
 
5-day plot - Atmospheric Pressure
PRES
mb
5-day plot - Pressure Tendency
PTDY
mb
5-day plot - Air Temperature
ATMP
°C
5-day plot - Water Temperature
WTMP
°C
5-day plot - Dew Point
DEWP
°C
5-day plot - Salinity
SAL
psu
5-day plot - Visibility
VIS
km
5-day plot - Tide (above MLLW)
TIDE
m
2024-05-22 05:12 pm SW 4.6 6.2----1012.3- 28.7 22.1----
2024-05-22 05:06 pm SW 3.6 6.2----1012.3- 29.4 22.2----
2024-05-22 05:00 pmSSW 4.6 6.7----1012.3- 29.3 22.2----
2024-05-22 04:54 pm SW 5.1 7.7----1012.4- 29.1 22.2----
2024-05-22 04:48 pmWSW 5.7 6.7----1012.3- 29.1 22.2----
2024-05-22 04:42 pm SW 4.6 6.7----1012.4- 29.2 22.2----
2024-05-22 04:36 pm SW 5.1 7.2----1012.3- 29.2 22.2----
2024-05-22 04:30 pmSSW 3.1 6.2----1012.4- 29.2 22.2----
2024-05-22 04:24 pm S 3.6 7.2----1012.3- 29.1 22.2----
2024-05-22 04:18 pmWSW 5.7 7.2----1012.6- 29.1 22.2----
2024-05-22 04:12 pm SW 5.1 8.2----1012.6- 29.1 22.2----
2024-05-22 04:06 pm SW 3.1 6.2----1012.6- 28.9 22.1----
2024-05-22 04:00 pmSSW 5.1 6.7----1012.7 -1.6 29.2 22.0----
2024-05-22 03:54 pmWSW 5.1 5.7----1012.7- 28.4 21.9----
2024-05-22 03:48 pmWSW 5.7 8.2----1012.6- 28.6 21.7----
2024-05-22 03:42 pm SW 3.6 7.2----1012.8- 28.9 21.7----
2024-05-22 03:36 pmWSW 3.6 7.2----1012.8- 28.7 21.7----
2024-05-22 03:30 pmWSW 5.1 6.7----1012.8- 29.2 21.7----
2024-05-22 03:24 pm SW 4.1 5.7----1012.8- 29.0 21.7----
2024-05-22 03:18 pmSSW 2.6 5.7----1012.8- 29.1 21.8----
2024-05-22 03:12 pm S 4.6 6.2----1012.7- 29.0 21.8----
2024-05-22 03:06 pm SW 4.6 7.7----1012.8- 29.0 21.8----
2024-05-22 03:00 pmWSW 4.6 6.7----1012.8 -2.4 28.3 21.8----
2024-05-22 02:54 pm S 3.1 6.2----1012.9- 29.1 21.8----
2024-05-22 02:48 pm SW 5.1 7.7----1013.0- 28.9 21.8----
2024-05-22 02:42 pmSSW 3.1 6.2----1013.2- 29.0 21.8----
2024-05-22 02:36 pmSSW 4.1 6.7----1013.3- 28.6 21.8----
2024-05-22 02:30 pmSSW 5.7 7.2----1013.4- 28.7 21.8----
2024-05-22 02:24 pm SW 3.1 6.2----1013.4- 28.6 21.8----
2024-05-22 02:18 pmWSW 3.1 6.2------- 21.8----
2024-05-22 02:12 pm SW 4.1 8.2------- 21.8----
2024-05-22 02:06 pm SW 4.6 6.2------- 21.7----
2024-05-22 02:00 pm SW 6.2 7.7------- 21.7----
2024-05-22 01:54 pmWSW 4.1 5.7------- 21.7----
2024-05-22 01:48 pmSSW 4.6 6.2------- 21.7----
2024-05-22 01:42 pmSSW 3.6 5.7------- 21.7----
2024-05-22 01:36 pmSSW 4.6 7.2------- 21.7----
2024-05-22 01:30 pmWSW 3.6 6.2----1013.8-------
2024-05-22 01:24 pmWSW 4.6 5.7----1013.9-------
2024-05-22 01:18 pmSSW 3.6 8.8------- 21.7----
2024-05-22 01:12 pmWSW 5.1 7.2------- 21.7----
2024-05-22 01:06 pmWSW 3.6 6.7------- 21.7----
2024-05-22 01:00 pmWSW 5.7 7.7----1014.3 -2.1- 21.7----
2024-05-22 12:54 pmWSW 4.6 7.2----1014.4-- 21.6----
2024-05-22 12:48 pmSSW 4.6 6.7------- 21.6----
2024-05-22 12:42 pmWSW 5.1 7.2------- 21.6----
2024-05-22 12:36 pmWSW 5.1 7.2------- 21.6----
2024-05-22 12:30 pm SW 5.1 6.7------------
2024-05-22 12:24 pmSSW 4.1 5.7------------
2024-05-22 12:18 pm SW 4.1 6.7------ 26.6 21.6----
2024-05-22 12:12 pm S 4.1 6.7------ 26.7 21.6----
2024-05-22 12:06 pm SW 5.1 6.7------ 26.4 21.6----
2024-05-22 12:00 pm SW 4.1 6.2----1015.2 -1.6 26.1 21.6----
2024-05-22 11:54 amSSW 3.1 7.2----1015.3- 26.3 21.5----
2024-05-22 11:48 am SW 3.6 6.7----1015.4- 26.1 21.5----
2024-05-22 11:42 am SW 5.1 7.2----1015.4- 26.0 21.4----
2024-05-22 11:36 am SW 4.6 5.7----1015.5- 26.0 21.3----
2024-05-22 11:30 am SW 3.6 6.2----1015.6- 25.4 21.2----
2024-05-22 11:24 am SW 4.1 6.7----1015.6- 25.6 21.2----
2024-05-22 11:18 amWSW 6.2 8.8----1015.6- 25.2 21.2----
2024-05-22 11:12 am SW 3.6 6.2----1015.7- 25.2 21.2----
2024-05-22 11:06 am SW 3.6 5.1----1015.8- 25.0 21.2----
2024-05-22 11:00 amSSW 3.6 5.7----1015.9 -0.7 25.0 21.2----
2024-05-22 10:54 am SW 3.6 5.1----1015.9- 24.5 21.1----
2024-05-22 10:48 amSSW 3.1 5.7----1016.0-- 21.1----
2024-05-22 10:42 amSSW 2.6 5.1----1016.0-- 21.1----
2024-05-22 10:36 amWSW 4.1 5.1----1016.0-- 21.0----
2024-05-22 10:30 amWSW 2.6 3.1------------
2024-05-22 10:24 amWSW 2.1 2.6------------
2024-05-22 10:18 amWSW 2.6 3.1------------
2024-05-22 10:12 amWSW 2.1 3.1------------
2024-05-22 10:06 amWSW 2.6 3.1------------
2024-05-22 10:00 amWSW 3.1 3.6----1016.4 +0.0 22.2 20.9----
2024-05-22 09:54 amWSW 3.1 3.6----1016.5- 22.1 20.9----
2024-05-22 09:48 amWSW 3.1 3.6----1016.5-- 20.9----
2024-05-22 09:42 amWSW 2.6 4.1----1016.5-- 20.8----
2024-05-22 09:36 amWSW 3.1 4.1----1016.5-- 20.8----
2024-05-22 09:30 am W 2.6 3.6------------
2024-05-22 09:24 amWSW 1.5 2.6------------
2024-05-22 09:18 am SW 2.1 3.1----1016.6-- 20.8----
2024-05-22 09:12 amWSW 1.5 2.6----1016.8-- 20.7----
2024-05-22 09:06 amWSW 1.5 2.1----1016.8-- 20.7----
2024-05-22 09:00 am W 1.5 2.1----1016.8 +0.0 20.2 20.7----
2024-05-22 08:54 amWSW 1.5 2.6----1016.9- 19.9 20.7----
2024-05-22 08:48 amWSW 2.1 2.6----1016.9- 19.6 20.7----
2024-05-22 08:42 amWSW 2.6 3.1----1016.9- 19.6 20.7----
2024-05-22 08:36 amWSW 2.1 2.6----1016.9- 19.5 20.7----
2024-05-22 08:30 am SW 2.1 2.6----1016.9- 19.5 20.7----
2024-05-22 08:24 am SW 1.5 2.1----1016.9- 19.4 20.7----
2024-05-22 08:18 am S 1.5 2.6----1016.7- 19.1 20.7----
2024-05-22 08:12 am SW 2.1 3.1----1016.8- 19.0 20.7----
2024-05-22 08:06 amSSE 1.0 1.5----1016.7- 19.4 20.6----
2024-05-22 08:00 amSSE 1.0 2.1----1016.6 +0.5 19.5 20.6----
2024-05-22 07:54 amSSE 1.0 2.1----1016.6- 18.9 20.6----
2024-05-22 07:48 amSSE 1.0 2.1----1016.5- 18.9 20.6----
2024-05-22 07:42 amSSE 2.1 2.1----1016.6- 18.3 20.6----
2024-05-22 07:36 am S 1.5 2.1----1016.6- 18.1 20.6----
2024-05-22 07:30 amSSE 1.5 2.1----1016.6- 17.8 20.6----
2024-05-22 07:24 amSSE 1.0 1.5----1016.6- 17.8 20.6----
2024-05-22 07:18 amSSE 1.0 2.1----1016.6- 17.5 20.6----
2024-05-22 07:12 am S 1.5 2.1----1016.5- 17.2 20.6----
2024-05-22 07:06 am SE 1.5 1.5----1016.5- 17.3 20.6----
2024-05-22 07:00 amSSE 1.5 2.1----1016.5 +0.9 17.0 20.6----
2024-05-22 06:54 amSSE 1.5 1.5----1016.6- 16.9 20.6----
2024-05-22 06:48 amSSE 0.5 1.0----1016.5- 16.8 20.6----
2024-05-22 06:42 amSSE 0.5 1.0----1016.6- 16.2 20.6----
2024-05-22 06:36 amSSE 1.0 2.1----1016.6- 15.9 20.6----
2024-05-22 06:30 amSSE 1.5 2.1----1016.5- 15.9 20.6----
2024-05-22 06:24 am- 0.0 2.1----1016.6- 15.9 20.6----
2024-05-22 06:18 am S 1.5 2.1----1016.6- 15.7 20.6----
2024-05-22 06:12 amSSE 1.5 2.6----1016.6- 15.7 20.6----
2024-05-22 06:06 am S 1.5 2.6----1016.6- 15.7 20.6----
2024-05-22 06:00 amSSE 2.1 2.6----1016.6 +0.9 15.6 20.6----
2024-05-22 05:54 amSSE 2.1 2.6----1016.5- 15.7 20.6----
2024-05-22 05:48 am S 2.1 2.6----1016.5- 15.7 20.6----
2024-05-22 05:42 am S 1.5 2.1----1016.6- 15.7 20.6----
2024-05-22 05:36 amSSW 1.5 2.1----1016.6- 15.8 20.6----
2024-05-22 05:30 amSSW 1.0 2.1----1016.4- 15.9 20.6----
2024-05-22 05:24 amSSW 1.0 1.5----1016.4- 15.9 20.6----
2024-05-22 05:18 amSSW 1.0 1.5----1016.3- 16.0 20.6----
2024-05-22 05:12 am S 1.5 2.1----1016.2- 16.1 20.6----
2024-05-22 05:06 am S 1.5 2.6----1016.2- 16.2 20.6----
2024-05-22 05:00 am S 0.5 1.5----1016.1 +0.8 16.3 20.6----
2024-05-22 04:54 am SW 1.0 2.1----1016.0- 16.4 20.6----
2024-05-22 04:48 am S 2.1 2.6----1015.9- 16.4 20.6----
2024-05-22 04:42 am S 2.1 2.6----1015.7- 16.5 20.6----
2024-05-22 04:36 am S 2.1 2.1----1015.7- 16.6 20.6----
2024-05-22 04:30 am S 1.5 2.6----1015.7- 16.7 20.6----
2024-05-22 04:24 am S 1.5 2.6----1015.7- 16.8 20.6----
2024-05-22 04:18 am S 1.5 2.6----1015.6- 16.7 20.6----
2024-05-22 04:12 amSSE 2.1 2.6----1015.5- 16.8 20.7----
2024-05-22 04:06 am S 2.1 2.6----1015.6- 16.8 20.7----
2024-05-22 04:00 am S 2.1 3.1----1015.6 +0.0 16.9 20.7----
2024-05-22 03:54 am S 1.5 2.6----1015.7- 16.9 20.7----
2024-05-22 03:48 am S 1.5 2.6----1015.8- 17.0 20.7----
2024-05-22 03:42 amSSW 2.1 2.1----1015.7- 16.9 20.7----
2024-05-22 03:36 am SW 1.5 2.6----1015.8- 17.1 20.7----
2024-05-22 03:30 amSSW 2.1 2.6----1015.7- 17.2 20.7----
2024-05-22 03:24 am S 2.6 3.1----1015.6- 17.2 20.7----
2024-05-22 03:18 am S 2.1 2.6----1015.7- 17.3 20.7----
2024-05-22 03:12 am S 1.5 2.6----1015.7- 17.3 20.7----
2024-05-22 03:06 am S 2.1 3.1----1015.8- 17.3 20.7----
2024-05-22 03:00 am S 2.6 2.6----1015.7 +0.0 17.3 20.7----
2024-05-22 02:54 am S 1.5 2.1----1015.7- 17.1 20.7----
2024-05-22 02:48 am S 1.5 1.5----1015.8- 17.3 20.7----
2024-05-22 02:42 amSSE 1.0 1.5----1015.8- 17.6 20.8----
2024-05-22 02:36 amSSE 1.5 2.1----1015.7- 17.6 20.8----
2024-05-22 02:30 am S 1.5 2.1----1015.6- 17.6 20.8----
2024-05-22 02:24 amSSE 1.5 2.1----1015.5- 17.6 20.8----
2024-05-22 02:18 am S 1.5 2.6----1015.4- 17.7 20.8----
2024-05-22 02:12 amSSE 2.1 2.6----1015.3- 17.6 20.8----
2024-05-22 02:06 am S 2.1 2.6----1015.3- 17.7 20.8----
2024-05-22 02:00 am S 2.1 2.6----1015.3 -0.3 17.8 20.8----
2024-05-22 01:54 am S 1.5 2.1----1015.3- 18.1 20.8----
2024-05-22 01:48 am S 1.5 2.1----1015.3- 18.2 20.9----
2024-05-22 01:42 am S 1.5 2.1----1015.4- 18.1 20.9----
2024-05-22 01:36 am S 1.5 2.6----1015.3- 18.1 20.9----
2024-05-22 01:30 am S 2.1 3.1----1015.2- 18.2 20.9----
2024-05-22 01:24 am S 2.1 2.6----1015.3- 18.6 20.9----
2024-05-22 01:18 am S 1.5 2.1----1015.5- 18.7 20.9----
2024-05-22 01:12 am S 1.0 1.5----1015.5- 18.8 20.9----
2024-05-22 01:06 am S 1.0 2.1----1015.5- 18.8 20.9----
2024-05-22 01:00 am S 1.5 2.1----1015.5 +0.0 18.9 20.9----
2024-05-22 12:54 am S 1.5 2.1----1015.5- 19.0 20.9----
2024-05-22 12:48 am S 1.5 2.6----1015.5- 19.0 20.9----
2024-05-22 12:42 am S 1.5 2.6----1015.4- 19.2 20.9----
2024-05-22 12:36 am S 2.1 2.1----1015.5- 19.3 20.9----
2024-05-22 12:30 am S 1.5 2.6----1015.5- 19.5 20.9----
2024-05-22 12:24 am S 1.5 2.6----1015.5- 19.5 20.9----
2024-05-22 12:18 am S 1.5 2.6----1015.6- 19.6 20.9----
2024-05-22 12:12 am S 2.1 2.6----1015.5- 19.7 20.9----
2024-05-22 12:06 am S 2.1 3.1----1015.6- 19.8 20.9----
2024-05-22 12:00 am S 1.5 2.6----1015.6 +0.8 19.9 20.9----
2024-05-21 11:54 pm S 2.1 3.1----1015.6- 20.1 21.0----
2024-05-21 11:48 pm S 2.6 3.1----1015.6- 20.2 21.0----
2024-05-21 11:42 pm S 2.6 3.1----1015.6- 20.3 21.0----
2024-05-21 11:36 pm S 2.6 3.1----1015.6- 20.4 21.0----
2024-05-21 11:30 pm S 2.1 2.6----1015.6- 20.5 21.0----
2024-05-21 11:24 pmSSW 1.5 2.6----1015.6- 20.7 21.0----
2024-05-21 11:18 pmSSW 2.1 2.6----1015.6- 20.8 21.0----
2024-05-21 11:12 pm S 2.1 3.1----1015.6- 20.9 21.0----
2024-05-21 11:06 pmSSW 1.5 3.1----1015.6- 21.1 21.0----
2024-05-21 11:00 pmSSW 2.6 3.1----1015.6 +1.0 21.3 20.9----
2024-05-21 10:54 pmSSW 2.6 3.1----1015.6- 21.4 20.9----
2024-05-21 10:48 pm SW 2.6 3.6----1015.6- 21.5 20.9----
2024-05-21 10:42 pmSSW 3.1 4.1----1015.5- 21.7 21.0----
2024-05-21 10:36 pmSSW 2.6 3.1----1015.4- 21.8 21.0----
2024-05-21 10:30 pm S 2.6 3.1----1015.3- 22.0 21.0----
2024-05-21 10:24 pm S 2.6 3.1----1015.4- 22.2 21.0----
2024-05-21 10:18 pmSSW 3.1 4.1----1015.4- 22.5 21.0----
2024-05-21 10:12 pmSSW 3.1 4.6----1015.4- 22.6 21.0----
2024-05-21 10:06 pmSSW 3.6 4.6----1015.3- 22.7 21.0----
2024-05-21 10:00 pmSSW 3.1 4.1----1015.3 +0.6 22.9 21.0----
2024-05-21 09:54 pmSSW 2.6 3.6----1015.3- 23.0 21.0----
2024-05-21 09:48 pm S 2.1 3.6----1015.2- 23.1 21.0----
2024-05-21 09:42 pmSSW 2.1 2.6----1015.0- 23.2 21.0----
2024-05-21 09:36 pm S 2.1 3.1----1015.0- 23.3 21.0----
2024-05-21 09:30 pm S 2.1 3.6----1014.9- 23.3 21.0----
2024-05-21 09:24 pm S 2.6 3.6----1014.9- 23.5 21.0----
2024-05-21 09:18 pm S 2.1 2.6----1014.9- 23.4 21.0----
2024-05-21 09:12 pm S 2.1 2.6----1014.8- 23.2 21.0----
2024-05-21 09:06 pm S 2.6 3.1----1014.7- 23.6 21.0----
2024-05-21 09:00 pmSSW 2.6 3.6----1014.8 +0.4 24.2 21.0----
2024-05-21 08:54 pmSSW 2.6 3.1----1014.8- 24.4 21.0----
2024-05-21 08:48 pmSSW 2.1 3.1----1014.8- 24.6 21.0----
2024-05-21 08:42 pmSSW 2.1 2.6----1014.7- 24.7 20.9----
2024-05-21 08:36 pmSSW 2.1 3.1----1014.7- 24.7 20.9----
2024-05-21 08:30 pmSSW 2.1 3.1----1014.6- 24.9 20.9----
2024-05-21 08:24 pm S 2.1 3.1----1014.6- 25.0 20.9----
2024-05-21 08:18 pm S 2.1 2.6----1014.6- 25.0 20.9----
2024-05-21 08:12 pmSSW 2.1 2.6----1014.6- 25.5 20.9----
2024-05-21 08:06 pmSSW 2.1 2.6----1014.6- 25.7 20.9----
2024-05-21 08:00 pm SW 2.1 3.1----1014.6 +0.5 25.8 20.8----
2024-05-21 07:54 pmSSW 2.6 3.1----1014.5- 25.9 20.8----
2024-05-21 07:48 pmSSW 2.6 3.6----1014.4- 26.2 20.8----
2024-05-21 07:42 pmSSW 2.6 3.6----1014.4- 26.4 20.8----
2024-05-21 07:36 pmSSW 2.6 4.1----1014.4- 26.4 20.8----
2024-05-21 07:30 pmSSW 3.1 4.6----1014.5- 26.5 20.8----
2024-05-21 07:24 pmSSW 2.6 4.6----1014.5- 26.5 20.7----
2024-05-21 07:00 pmSSW 3.1 4.1----1014.7 +0.0 26.9 20.6----
2024-05-21 06:54 pmSSW 2.6 4.6----1014.7- 26.9 20.5----
2024-05-21 06:48 pmWSW 3.6 4.6----1014.7- 26.2 20.5----
2024-05-21 06:42 pmWSW 4.1 4.6----1014.7- 25.8 20.5----
2024-05-21 06:36 pmWSW 3.1 4.6----1014.7- 26.6 20.4----
2024-05-21 06:30 pmWSW 4.1 5.7----1014.6- 26.4 20.4----
2024-05-21 06:24 pmWSW 3.6 4.6----1014.6- 26.5 20.3----
2024-05-21 06:18 pmWSW 4.6 5.1----1014.6- 26.7 20.3----
2024-05-21 06:12 pmWSW 4.1 5.7----1014.5- 26.2 20.3----
2024-05-21 06:06 pmWSW 5.1 6.7----1014.4- 27.2 20.3----
2024-05-21 06:00 pmWSW 4.1 5.1----1014.4 -0.6 26.4 20.2----
2024-05-21 05:54 pmWSW 3.6 5.1----1014.3- 27.2 20.2----